Regional Weather Roundup
Issued by NWS Upton, NY

Current Version | Previous Version | Graphics & Text | Print | Product List | Glossary Off
Versions: 1 2 3 4 5 6 7 8 9 10 11 12 13 14 15 16 17 18 19 20 21 22 23 24 25 26 27 28 29 30 31 32 33 34 35 36 37 38 39 40 41 42 43 44 45 46 47 48 49 50
000 ASUS41 KOKX 181805 RWROKX REGIONAL WEATHER ROUNDUP NATIONAL WEATHER SERVICE NEW YORK NY 200 PM EDT THU SEP 18 2014 NOTE: "FAIR" INDICATES FEW OR NO CLOUDS BELOW 12,000 FEET WITH NO SIGNIFICANT WEATHER AND/OR OBSTRUCTIONS TO VISIBILITY. NYZ071-072-176-178-NJZ106-104-181900- NEW YORK CITY METRO AREA CITY SKY/WX TMP DP RH WIND PRES REMARKS CENTRAL PARK PTSUNNY 73 47 39 CALM 30.01F LAGUARDIA APRT MOSUNNY 74 46 36 NW6 29.98F KENNEDY INTL MOSUNNY 76 43 30 VRB5 29.99F NEWARK/LIBERTY MOSUNNY 77 47 34 W8 29.98F BRNX BOT. GARD N/A 75 46 35 SW14 29.99F TETERBORO MOSUNNY 74 46 36 W8 29.97F $$ NYZ177-179-078>081-181900- LONG ISLAND NEW YORK CITY SKY/WX TMP DP RH WIND PRES REMARKS FARMINGDALE MOSUNNY 74 46 36 N6 29.99F ISLIP MOSUNNY 74 45 35 NW10 29.97F SHIRLEY SUNNY 74 43 32 NW9 29.99F WESTHAMPTON SUNNY 75 44 33 N13 29.99F MONTAUK POINT N/A 72 48 42 W6 29.99F $$ NYZ052-065-067-181900- HUDSON VALLEY CITY SKY/WX TMP DP RH WIND PRES REMARKS WHITE PLAINS MOSUNNY 74 44 34 NW8 29.98F NEWBURGH PTSUNNY 72 50 46 CALM 30.01F MONTGOMERY N/A 74 44 34 MISG 29.98F POUGHKEEPSIE MOSUNNY 72 46 39 CALM 29.98F ALBANY PTSUNNY 69 51 52 SW7 30.00F $$ NJZ001-105-106-008-010-013-015-019>022-104-181900- NEW JERSEY CITY SKY/WX TMP DP RH WIND PRES REMARKS NEWARK/LIBERTY MOSUNNY 77 47 34 W8 29.98F TETERBORO MOSUNNY 74 46 36 W8 29.97F CALDWELL MOSUNNY 72 45 37 VRB3 29.99F MORRISTOWN PTSUNNY 75 48 38 NW7 29.99F SOMERVILLE NOT AVBL LINDEN FAIR 77 50 38 NW6 30.00F SUSSEX PTSUNNY 72 46 39 SW5 30.00F ANDOVER N/A 70 47 43 CALM 30.01F TRENTON SUNNY 73 49 42 SW6 29.99F MILLVILLE PTSUNNY 75 48 38 NW5 30.00F ATLANTIC CITY MOSUNNY 74 49 41 VRB3 30.00F WRIGHTSTOWN NOT AVBL TOMS RIVER MOSUNNY 73 46 38 CALM 30.00F BELMAR SUNNY 73 46 38 W7 30.00F $$ PAZ047>061-062-071-181900- EASTERN PENNSYLVANIA CITY SKY/WX TMP DP RH WIND PRES REMARKS PHILADELPHIA PTSUNNY 73 53 49 SW9 30.00F ALLENTOWN MOSUNNY 73 45 36 SW3 30.00F SCRANTON MOSUNNY 70 41 34 MISG 30.02F $$ CTZ002-004>006-009-010-012-RIZ004-006-007-MAZ004-011-015-181900- SOUTHERN NEW ENGLAND IN CT CITY SKY/WX TMP DP RH WIND PRES REMARKS BRADLEY INTL PTSUNNY 72 49 44 N10 29.97F HARTFORD MOSUNNY 72 49 44 VRB7 29.97F DANBURY MOSUNNY 72 45 37 NW9 30.01S WTRBRY/OXFORD MOSUNNY 70 46 43 N12 30.00F BRIDGEPORT MOSUNNY 73 50 44 SW9 29.98F MERIDEN SUNNY 74 43 32 MISG 29.98F NEW HAVEN MOSUNNY 74 46 36 NW5 29.98S CHESTER FAIR 72 46 40 CALM 29.99F GROTON SUNNY 74 48 39 NW9 29.96F WILLIMANTIC MOSUNNY 71 46 40 N9 29.98F IN RI CITY SKY/WX TMP DP RH WIND PRES REMARKS PROVIDENCE MOSUNNY 76 45 33 VRB7 29.96F BLOCK ISLAND SUNNY 72 48 43 W8 29.98F WESTERLY SUNNY 74 45 35 VRB5 29.97F IN MA CITY SKY/WX TMP DP RH WIND PRES REMARKS BOSTON MOSUNNY 72 47 40 SE6 29.95F WORCESTER MOSUNNY 67 46 47 W8 29.99S WESTFIELD MOSUNNY 74 43 32 VRB7 29.97F PROVINCETOWN SUNNY 66 52 59 NW7 29.96F NANTUCKET SUNNY 72 45 37 NW10 29.95F $$ ANZ330-335-338-340-345-350-353-355-181900- COASTAL MARINE OBSERVATIONS STATION/POSITION TIME SKY/WX TEMP WIND PRES VSBY WAVE AIR SEA DIR/SP/G HT/PER (UTC) (F) (DEG/KT/KT) (MB) (MI) (FT/S) NY HARB ENTRANCE 1800 69 71 280/ 6/ 8 1016.0 3/13 4S FIRE IS 1800 72 N/A 3/11 23SW MTP 1800 N/A 3/13 HUDSON CANYON 1800 68 74 330/ 10/ 12 1015.3 3/12 EXECUTION ROCKS 1800 72 72 200/ 4/ 6 N/A WESTERN LI SOUND 1700 69 190/ 4/ 6 N/A 0 CENTRAL LI SOUND 1700 68 71 240/ 6/ 10 N/A 1 EASTERN LI SOUND 1700 70 69 270/ 6/ 8 N/A ROBBINS REEF 1800 70 160/ 9/ 12 1014.1 $$ >>>>>>>>>>>>>>>>>>>>>>>>>>>> KEY <<<<<<<<<<<<<<<<<<<<<<<<<<< > < > SKY/WX - SKY CONDITION/PRESENT WEATHER < > TMP - TEMPERATURE IN FAHRENHEIT < > DP - DEWPOINT IN FAHRENHEIT < > RH - RELATIVE HUMIDITY IN PERCENT < > WIND - DIRECTION AND SPEED IN MPH < > PRES - MEAN SEA LEVEL PRESSURE IN INCHES OF HG < > WCI - WIND CHILL INDEX < > VSB - VISIBILITY IN MILES < > HX - HEAT INDEX < > TC - TEMPERATURE IN CELSIUS < > VRB - VARIABLE WIND DIRECTION < > < >>>>>>>>>>>>>>>>>>>>>>>>>>>> KEY <<<<<<<<<<<<<<<<<<<<<<<<<<<

USA.gov is the U.S. government's official web portal to all federal, state and local government web resources and services.